Date String (YYYY-MM-DD hh:mm:ss) UTC,Instrument flags,Ambient pressure (hPa),Sample flow (lpm),Bypass flow (lpm),Sample temperature (°C),Ambient temperature (°C),ASC tube jacket temperature (°C),LED temperature (°C),Box temperature (°C),Sample RH (%),Span deviation,Mass concentration (μg/m³),Mass concentration (μg/m³),Mass concentration (μg/m³)
DateTimeUTC,F1_M11,P_M11,Q1_M11,Q2_M11,T1_M11,T2_M11,T3_M11,T4_M11,T5_M11,U1_M11,ZSPAN_M11,X2_M11,X0_M11,X1_M11
2021-10-24 06:00:00,,0817.8,5.01,0.00,29.0,28.1,00.0,38.2,30.6,11.8,0000.0,0001.17,0003.52,0000.70
2021-10-24 06:01:00,,0817.7,4.99,0.00,29.0,28.1,00.0,38.2,30.6,11.7,0000.0,0001.21,0002.44,0000.70
2021-10-24 06:02:00,,0817.7,5.00,0.00,29.0,28.0,00.0,38.2,30.7,11.6,0000.0,0001.22,0002.44,0000.70
2021-10-24 06:03:00,,0817.7,5.00,0.00,29.0,28.0,00.0,38.2,30.7,11.6,0000.0,0001.23,0002.44,0000.70
2021-10-24 06:04:00,,0817.8,5.01,0.00,28.9,28.0,00.0,38.2,30.5,11.7,0000.0,0001.23,0002.44,0000.70
2021-10-24 06:05:00,,0817.8,5.00,0.00,28.9,28.0,00.0,38.2,30.5,11.8,0000.0,0001.22,0002.26,0000.71
2021-10-24 06:06:00,,0817.7,5.00,0.00,28.9,27.9,00.0,38.2,30.5,11.8,0000.0,0001.23,0003.20,0000.72
2021-10-24 06:07:00,,0817.8,5.01,0.00,28.9,27.9,00.0,38.2,30.5,11.5,0000.0,0001.22,0004.23,0000.72
2021-10-24 06:08:00,,0817.8,4.99,0.00,28.9,27.9,00.0,38.1,30.5,11.4,0000.0,0001.19,0004.34,0000.72
2021-10-24 06:09:00,,0817.7,5.00,0.00,28.9,27.9,00.0,38.1,30.5,11.4,0000.0,0001.13,0004.20,0000.71
2021-10-24 06:10:00,,0817.7,4.99,0.00,28.8,27.9,00.0,38.1,30.4,11.2,0000.0,0001.12,0004.20,0000.70
2021-10-24 06:11:00,,0817.8,5.00,0.00,28.8,27.9,00.0,38.1,30.4,11.1,0000.0,0001.15,0004.28,0000.70
2021-10-24 06:12:00,,0817.8,5.01,0.00,28.8,27.9,00.0,38.1,30.5,11.2,0000.0,0001.12,0004.23,0000.69
2021-10-24 06:13:00,,0817.7,5.00,0.00,28.8,27.8,00.0,38.1,30.5,11.1,0000.0,0001.09,0004.17,0000.69
2021-10-24 06:14:00,,0817.6,4.99,0.00,28.8,27.8,00.0,38.1,30.5,11.0,0000.0,0001.09,0004.16,0000.68
2021-10-24 06:15:00,,0817.6,5.01,0.00,28.8,27.8,00.0,38.1,30.5,11.0,0000.0,0001.08,0004.20,0000.67
2021-10-24 06:16:00,,0817.5,5.00,0.00,28.8,27.8,00.0,38.1,30.5,11.0,0000.0,0001.09,0004.28,0000.66
2021-10-24 06:17:00,,0817.7,4.99,0.00,28.8,27.8,00.0,38.0,30.5,10.9,0000.0,0001.13,0004.05,0000.65
2021-10-24 06:18:00,,0817.6,5.00,0.00,28.8,27.8,00.0,38.0,30.4,10.9,0000.0,0001.15,0003.66,0000.65
2021-10-24 06:19:00,,0817.6,5.00,0.00,28.7,27.7,00.0,38.0,30.3,11.0,0000.0,0001.18,0003.69,0000.65
2021-10-24 06:20:00,,0817.5,5.01,0.00,28.7,27.7,00.0,38.0,30.4,10.9,0000.0,0001.25,0003.87,0000.65
2021-10-24 06:21:00,,0817.4,5.00,0.00,28.7,27.7,00.0,38.0,30.4,10.9,0000.0,0001.33,0004.66,0000.66
2021-10-24 06:22:00,,0817.7,5.01,0.00,28.7,27.6,00.0,37.9,30.4,11.7,0000.0,0001.70,0008.19,0000.71
2021-10-24 06:23:00,,0817.7,4.99,0.00,28.7,27.7,00.0,37.9,30.4,12.8,0000.0,0002.03,0008.92,0000.90
2021-10-24 06:24:00,,0817.9,5.01,0.00,28.7,27.7,00.0,37.9,30.3,13.0,0000.0,0002.53,0009.63,0001.13
2021-10-24 06:25:00,,0817.9,5.00,0.00,28.7,27.7,00.0,37.9,30.3,13.0,0000.0,0002.87,0010.06,0001.35
2021-10-24 06:26:00,,0817.9,5.00,0.00,28.7,27.7,00.0,37.9,30.3,13.0,0000.0,0003.17,0011.45,0001.55
2021-10-24 06:27:00,,0817.8,4.99,0.00,28.7,27.8,00.0,37.9,30.4,12.5,0000.0,0003.38,0011.99,0001.71
2021-10-24 06:28:00,,0817.8,4.99,0.00,28.7,27.8,00.0,37.9,30.4,12.6,0000.0,0003.51,0012.50,0001.86
2021-10-24 06:29:00,,0817.7,5.00,0.00,28.7,27.8,00.0,37.9,30.4,12.7,0000.0,0003.66,0012.61,0002.04
2021-10-24 06:30:00,,0817.7,5.00,0.00,28.7,27.8,00.0,37.9,30.4,12.9,0000.0,0003.84,0013.05,0002.30
2021-10-24 06:31:00,,0817.9,5.00,0.00,28.7,27.8,00.0,37.9,30.4,12.5,0000.0,0003.95,0013.30,0002.47
2021-10-24 06:32:00,,0818.0,4.99,0.00,28.7,27.8,00.0,37.9,30.4,13.0,0000.0,0004.13,0013.71,0002.69
2021-10-24 06:33:00,,0817.9,5.02,0.00,28.7,27.8,00.0,37.9,30.4,12.8,0000.0,0004.17,0012.06,0002.88
2021-10-24 06:34:00,,0817.9,4.99,0.00,28.7,27.8,00.0,37.9,30.4,12.3,0000.0,0004.12,0012.37,0002.85
2021-10-24 06:35:00,,0817.9,5.00,0.00,28.7,27.8,00.0,37.9,30.4,12.0,0000.0,0004.00,0012.19,0002.72
2021-10-24 06:36:00,,0817.9,5.01,0.00,28.7,27.8,00.0,37.8,30.4,11.9,0000.0,0003.88,0012.01,0002.55
2021-10-24 06:37:00,,0817.8,4.98,0.00,28.7,27.8,00.0,37.8,30.3,11.4,0000.0,0003.72,0010.68,0002.38
2021-10-24 06:38:00,,0817.9,5.00,0.00,28.7,27.8,00.0,37.8,30.3,11.2,0000.0,0003.50,0009.96,0002.21
2021-10-24 06:39:00,,0817.9,5.01,0.00,28.6,27.7,00.0,37.8,30.3,11.1,0000.0,0003.33,0009.28,0002.07
2021-10-24 06:40:00,,0818.0,5.00,0.00,28.6,27.7,00.0,37.8,30.3,11.1,0000.0,0003.14,0009.67,0001.90
2021-10-24 06:41:00,,0818.0,4.98,0.00,28.6,27.7,00.0,37.8,30.2,11.6,0000.0,0002.87,0009.28,0001.66
2021-10-24 06:42:00,,0818.0,5.00,0.00,28.6,27.7,00.0,37.8,30.3,12.4,0000.0,0002.75,0009.24,0001.54
2021-10-24 06:43:00,,0818.0,5.00,0.00,28.6,27.7,00.0,37.8,30.3,12.3,0000.0,0002.47,0008.90,0001.39
2021-10-24 06:44:00,,0818.0,5.00,0.00,28.6,27.7,00.0,37.8,30.3,12.6,0000.0,0002.13,0008.53,0001.23
2021-10-24 06:45:00,,0818.0,4.99,0.00,28.6,27.7,00.0,37.8,30.4,12.7,0000.0,0002.10,0008.06,0001.20
2021-10-24 06:46:00,,0818.0,5.00,0.00,28.7,27.7,00.0,37.8,30.4,12.7,0000.0,0002.12,0008.58,0001.21
2021-10-24 06:47:00,,0818.0,5.00,0.00,28.7,27.8,00.0,37.8,30.4,12.6,0000.0,0002.15,0008.73,0001.24
2021-10-24 06:48:00,,0818.0,4.99,0.00,28.7,27.8,00.0,37.8,30.4,12.6,0000.0,0002.24,0009.04,0001.30
2021-10-24 06:49:00,,0817.9,5.00,0.00,28.7,27.8,00.0,37.8,30.4,12.6,0000.0,0002.39,0009.28,0001.36
2021-10-24 06:50:00,,0818.0,5.01,0.00,28.7,27.8,00.0,37.8,30.5,12.6,0000.0,0002.49,0009.32,0001.42
2021-10-24 06:51:00,,0818.0,5.00,0.00,28.7,27.8,00.0,37.8,30.4,12.5,0000.0,0002.62,0008.35,0001.49
2021-10-24 06:52:00,,0817.9,5.01,0.00,28.7,27.9,00.0,37.8,30.5,12.5,0000.0,0002.76,0009.20,0001.55
2021-10-24 06:53:00,,0817.9,4.99,0.00,28.7,27.9,00.0,37.8,30.5,12.5,0000.0,0002.70,0009.10,0001.55
2021-10-24 06:54:00,,0817.8,5.01,0.00,28.7,27.9,00.0,37.8,30.5,12.3,0000.0,0002.67,0008.92,0001.54
2021-10-24 06:55:00,,0817.9,5.00,0.00,28.8,27.9,00.0,37.8,30.5,11.9,0000.0,0002.65,0008.57,0001.51
2021-10-24 06:56:00,,0817.9,5.00,0.00,28.8,27.9,00.0,37.8,30.5,12.0,0000.0,0002.52,0008.19,0001.45
2021-10-24 06:57:00,,0817.9,5.00,0.00,28.8,27.9,00.0,37.8,30.5,12.0,0000.0,0002.32,0007.01,0001.39
2021-10-24 06:58:00,,0817.9,5.01,0.00,28.8,27.9,00.0,37.9,30.5,12.0,0000.0,0002.28,0007.00,0001.35
2021-10-24 06:59:00,,0817.9,5.01,0.00,28.8,27.9,00.0,37.9,30.5,12.0,0000.0,0002.26,0006.43,0001.33
